Theta_e
314 314 315 315 315 315 315 314 313 313 313 313 313 312 311 310 310 311 313 312 314 315 312 311 315 317 311 302 302 313 321 320 310 307 303 300 297 296 293 294 294 292 293 294 296 296 296
314 313 314 315 315 315 315 314 313 314 313 313 312 312 310 309 310 311 312 314 315 315 313 314 318 315 307 295 311 312 308 308 307 305 302 301 298 299 295 293 292 294 294 294 295 295 296
314 314 314 315 315 315 314 313 312 312 312 313 313 311 309 309 311 313 314 315 315 315 316 317 316 312 304 300 312 310 309 306 307 305 300 303 303 298 297 293 296 294 291 293 294 295 294
314 313 314 314 315 314 314 313 312 312 312 313 313 311 310 310 310 311 313 314 314 313 314 315 314 310 298 310 311 307 308 307 308 308 305 305 304 300 297 297 293 291 291 288 292 293 295
314 312 313 313 314 313 313 313 313 313 313 313 313 311 311 310 311 315 313 313 313 313 315 314 307 304 296 311 303 306 308 304 306 306 306 305 302 296 295 291 289 290 288 286 289 293 293
315 313 312 313 313 312 312 313 313 313 313 312 312 311 310 310 312 314 315 314 312 312 309 309 305 298 301 296 303 306 309 306 302 302 300 298 296 292 292 290 286 286 284 286 287 291 292
313 314 312 311 313 312 313 312 312 313 313 312 312 311 311 311 310 309 307 307 300 298 302 297 297 297 297 303 306 302 306 303 301 298 292 294 292 288 289 290 289 288 286 286 289 292 290
312 313 313 312 311 311 312 312 312 311 312 312 312 310 311 312 311 310 308 299 298 298 290 299 299 299 302 302 295 299 305 297 295 291 292 291 287 289 290 289 288 287 286 287 290 292 291
312 311 313 313 313 313 312 312 312 312 311 311 311 311 310 310 310 307 303 302 308 305 290 293 297 296 298 300 294 296 300 297 293 290 289 288 288 291 289 288 286 288 287 287 287 291 294
312 312 312 312 313 313 313 313 312 312 312 311 310 310 309 309 305 303 299 305 306 305 289 287 292 294 298 299 292 300 301 296 292 287 288 288 290 288 288 287 289 286 291 290 289 288 285
312 312 312 312 312 312 312 312 313 312 312 312 311 309 308 310 305 301 302 305 305 302 277 290 292 302 298 293 294 295 301 297 289 289 289 286 288 288 288 289 291 288 292 290 290 287 285
310 312 312 312 312 312 312 312 312 312 312 312 311 309 306 305 305 304 305 303 300 288 275 286 292 291 290 292 292 294 294 298 296 289 290 289 292 292 290 291 292 293 291 292 290 286 280
312 310 312 313 312 312 313 313 312 312 311 312 310 308 305 304 300 304 304 299 288 279 287 285 287 290 288 287 288 290 288 287 287 285 285 288 289 292 292 289 293 292 288 283 281 280 282
313 310 310 312 311 312 313 313 313 312 311 311 309 304 303 303 304 304 301 293 278 283 284 290 290 290 286 287 286 288 287 288 288 289 287 284 283 289 294 291 289 290 289 283 277 280 283
314 312 309 311 311 312 313 313 313 313 311 311 303 303 303 302 304 303 298 284 283 285 289 288 289 285 286 288 288 288 287 287 290 290 286 284 284 292 294 295 293 289 286 291 284 286 282
314 313 311 309 311 311 312 313 313 313 311 307 302 300 300 303 302 304 294 285 289 292 292 291 284 286 284 286 286 287 287 291 290 293 294 290 283 290 293 295 295 291 294 286 286 279 279
315 314 312 310 310 311 312 313 313 311 309 302 300 299 303 303 303 299 287 288 291 294 294 291 287 287 288 288 288 287 288 292 294 294 294 293 288 288 292 291 290 290 288 288 288 287 281
315 314 313 311 308 310 311 312 313 310 307 300 299 297 303 305 297 294 291 290 292 293 295 293 293 291 290 290 289 289 289 292 297 297 291 294 290 285 288 293 296 294 290 290 285 283 286
314 315 313 312 308 310 311 312 312 310 304 300 297 297 304 304 293 291 290 290 292 293 292 292 292 293 293 291 288 291 292 297 298 296 293 294 288 283 285 289 292 290 292 292 291 288 284
314 315 314 312 309 310 310 312 312 309 306 300 297 295 300 298 293 292 291 290 291 294 293 293 293 294 292 290 292 290 290 294 297 297 298 296 290 286 285 286 289 286 288 290 289 285 287
315 314 314 312 310 309 311 311 311 309 305 301 295 291 291 293 292 291 291 291 290 290 294 294 292 291 291 288 289 289 291 292 294 294 296 295 286 287 288 289 289 288 287 288 286 289 286
315 314 314 312 310 309 311 311 310 308 303 299 295 294 292 291 290 291 290 290 290 291 292 291 291 292 292 290 291 288 291 291 290 293 292 291 288 287 285 287 288 285 288 289 289 289 289
315 314 314 313 310 308 311 309 310 307 303 299 296 294 295 288 289 290 291 291 291 292 294 295 293 292 291 293 295 296 296 295 294 292 290 289 289 286 284 285 286 283 287 288 291 292 292
315 314 313 313 310 309 311 310 307 306 303 302 298 297 294 288 289 290 289 290 291 292 291 294 294 292 295 297 295 294 293 293 293 292 293 289 288 287 284 285 279 287 291 291 291 292 293
315 314 314 313 309 310 310 309 306 305 302 301 299 297 295 290 290 289 289 290 291 292 291 292 295 297 297 295 292 288 288 288 289 291 291 292 289 286 282 282 286 286 286 289 289 291 295
315 315 314 313 309 309 310 309 308 305 301 299 297 298 296 292 289 291 290 290 290 290 290 291 295 297 296 293 290 284 282 283 284 285 289 289 289 287 284 279 278 284 289 292 293 287 293
315 315 314 313 310 308 310 309 308 307 303 300 296 296 297 292 292 292 290 290 292 290 290 290 293 293 294 292 287 285 284 285 282 282 283 286 287 284 284 282 285 290 292 293 285 287 292
314 314 313 313 311 308 309 310 309 308 305 301 296 296 296 292 292 291 293 291 291 292 290 291 292 291 291 288 287 287 285 286 284 285 284 284 283 283 284 281 278 290 290 288 292 293 295
313 313 313 312 311 309 308 310 310 309 307 301 297 296 296 294 294 293 295 295 296 296 294 292 292 291 294 291 289 289 287 286 285 283 285 282 287 285 286 287 291 292 293 295 294 293 294
Wind_Speed
22 23 24 25 26 26 24 22 21 21 20 19 18 15 11 5 4 5 6 5 6 9 6 4 5 20 11 7 5 12 9 15 11 7 8 7 8 5 7 5 5 4 4 3 4 5 8
23 22 24 24 25 25 23 23 22 21 18 19 21 17 11 6 5 6 4 16 9 10 7 3 14 9 7 6 3 7 9 9 9 8 6 2 4 8 9 4 2 2 2 5 4 4 6
22 23 23 24 23 24 23 22 22 22 21 21 21 19 11 7 8 8 8 14 14 14 14 17 12 3 13 6 4 6 7 6 8 9 8 7 8 3 7 6 3 1 3 3 3 1 2
21 22 23 23 23 23 22 22 22 21 21 21 19 18 13 10 11 7 8 12 14 13 13 13 11 7 6 5 7 6 9 15 13 13 13 11 10 10 3 7 3 1 2 3 3 2 2
19 21 22 22 23 23 23 23 23 21 21 21 20 16 15 12 11 14 11 12 14 12 16 10 11 6 5 5 5 5 3 11 11 11 8 5 4 4 4 4 4 1 2 2 4 1 2
19 20 20 22 22 22 23 24 24 22 20 18 20 15 14 14 14 18 23 23 20 14 10 10 6 6 4 5 4 6 7 6 6 10 6 4 3 3 4 3 2 3 2 3 6 0 8
18 18 19 20 22 22 23 23 23 22 21 20 16 19 14 16 13 11 5 3 4 9 11 10 10 15 12 3 3 7 3 8 3 4 3 3 4 5 7 7 6 2 2 6 9 7 11
18 18 18 20 21 22 23 23 21 20 20 18 15 13 16 19 16 12 8 8 4 5 13 19 18 15 7 1 8 8 4 2 3 6 1 2 6 5 6 3 1 0 5 6 9 4 7
18 17 18 19 20 21 22 22 21 19 19 19 16 9 10 13 12 14 15 10 4 1 7 10 8 5 4 5 6 6 4 2 5 4 5 4 6 7 1 2 3 3 6 4 6 12 12
18 17 17 18 19 21 22 21 20 21 19 16 16 15 3 4 6 3 4 4 2 2 6 10 5 5 2 2 5 4 5 3 2 3 2 4 3 2 1 3 3 4 2 6 8 10 5
17 17 16 17 18 19 20 22 22 21 20 19 14 11 11 1 7 2 1 2 2 2 7 8 5 1 3 2 5 3 4 3 4 3 4 3 4 4 3 2 6 2 2 8 11 12 10
16 17 17 16 16 17 18 20 20 21 20 19 16 11 4 2 1 4 1 2 3 1 10 3 2 1 3 4 2 1 2 3 0 1 1 1 1 2 2 2 9 9 10 9 2 2 4
15 16 17 17 16 17 18 18 19 20 19 20 16 8 4 1 2 4 2 3 3 8 1 3 3 2 4 3 3 1 1 2 2 1 5 1 2 1 3 4 3 4 5 3 2 3 4
14 15 17 17 16 17 18 18 18 19 19 18 16 6 3 2 2 1 2 3 12 2 3 2 1 2 4 1 3 2 1 4 2 3 3 4 2 4 7 3 3 4 4 3 5 3 6
13 14 15 17 17 17 18 18 18 17 16 17 9 2 2 6 0 3 0 10 5 3 2 3 1 3 3 3 1 2 4 4 2 3 3 3 2 2 6 3 2 3 5 3 4 6 5
11 13 14 15 17 17 17 19 18 17 19 11 2 2 4 8 3 1 6 8 4 2 2 1 1 1 2 2 0 1 2 1 2 5 3 2 4 3 2 3 7 6 2 4 4 4 4
9 12 14 15 16 17 17 18 19 17 19 3 2 1 4 4 3 7 8 5 3 2 2 1 2 2 4 3 1 2 1 2 3 2 5 1 2 2 3 8 6 5 3 5 3 3 4
10 10 13 14 14 17 17 17 16 17 16 5 1 3 5 2 5 2 3 2 0 3 1 1 2 2 2 2 2 1 2 3 5 4 3 4 3 5 4 2 4 3 4 4 3 3 3
11 10 10 12 13 14 15 16 14 12 11 2 3 2 2 3 4 3 3 3 1 2 2 1 1 1 2 3 2 3 4 2 7 6 3 4 4 4 4 4 5 6 5 6 5 1 7
11 12 9 10 11 12 15 13 10 8 8 2 0 1 4 5 2 3 2 2 4 2 2 2 1 2 3 2 2 2 2 3 5 6 3 3 4 7 4 4 1 5 6 6 8 4 4
10 12 10 9 10 12 12 13 7 7 5 1 4 3 3 2 3 4 1 0 2 4 1 2 2 2 1 1 1 2 1 2 2 1 4 4 5 4 12 15 13 12 12 9 11 10 5
11 9 11 10 10 11 11 10 7 5 1 3 2 3 2 3 2 3 0 3 2 2 4 4 2 1 1 2 2 2 1 3 1 2 2 1 4 3 8 2 7 13 14 11 11 13 14
10 8 9 10 10 11 10 10 5 4 2 2 1 1 1 2 1 2 2 5 4 1 3 3 3 3 6 5 4 7 7 6 2 2 3 3 3 3 5 3 11 12 15 15 8 9 8
11 10 9 9 9 11 11 1 1 2 2 2 1 1 2 3 3 3 2 3 5 3 3 2 4 4 1 1 2 2 5 8 9 10 8 4 4 2 5 7 5 3 1 4 11 7 15
11 11 10 8 7 8 4 8 4 1 4 3 2 1 1 2 2 4 6 4 2 3 3 4 4 3 4 3 4 5 3 4 4 6 10 8 3 4 4 4 11 3 4 5 7 7 17
11 11 11 8 5 4 4 6 6 4 3 3 2 0 1 1 5 3 5 5 4 3 3 5 2 0 1 2 3 4 3 1 2 3 4 5 3 4 2 4 5 2 3 3 2 8 2
11 10 12 10 8 6 6 9 6 6 4 1 2 1 1 2 2 6 5 5 4 2 3 2 2 3 1 2 4 5 3 0 3 3 5 4 5 10 8 6 10 4 4 4 4 2 2
11 11 12 12 10 9 8 9 9 7 6 2 1 2 1 2 3 8 5 5 4 3 3 4 2 3 3 4 3 2 4 1 3 3 5 8 7 6 5 7 10 4 4 5 6 3 1
12 12 13 13 12 11 10 10 10 10 8 4 2 1 1 2 3 3 6 4 4 5 3 3 3 2 2 3 3 1 2 3 4 4 3 6 8 4 10 6 2 6 6 5 4 6 8
Wind_Direction
13 10 2 3 3 9 10 22 23 23 23 16 9 7 8 78 139 350 76 18 282 146 110 87 104 127 84 61 58 314 190 125 123 121 139 140 153 139 136 127 132 204 170 229 240 270 274
13 12 6 3 12 15 13 17 15 21 20 15 8 18 13 33 48 35 109 154 176 115 81 87 138 111 113 102 337 14 65 102 110 117 111 131 134 111 104 110 212 121 239 269 281 264 260
14 12 7 4 11 16 21 17 17 14 13 13 21 28 44 63 58 77 112 121 111 98 83 93 98 168 80 84 65 24 338 102 107 119 104 100 124 111 122 130 116 113 264 257 211 186 240
17 12 10 5 6 11 13 16 19 18 19 16 26 42 58 69 43 73 107 106 101 93 98 92 70 70 75 85 116 133 121 90 88 89 99 105 102 94 84 120 116 215 247 248 150 283 102
20 15 11 7 6 6 12 12 11 12 24 19 21 50 58 48 45 71 146 139 110 105 98 109 63 41 62 119 90 351 116 107 97 91 86 84 74 87 133 162 164 124 242 267 287 239 250
10 16 14 9 6 6 7 10 12 14 22 31 31 39 47 44 53 87 89 92 88 93 80 88 82 96 9 76 40 70 75 101 106 116 96 50 80 114 123 187 235 143 221 258 276 88 269
7 16 14 11 7 4 6 6 12 17 24 30 35 38 43 55 47 45 46 68 68 42 29 57 86 90 75 112 194 74 58 104 69 67 88 51 104 91 96 72 94 91 297 291 280 295 289
12 8 13 11 6 6 4 6 10 16 24 29 31 49 55 76 60 67 82 81 43 140 61 51 70 73 56 338 90 57 14 52 19 84 77 137 87 109 102 103 89 84 295 296 284 280 284
8 9 7 9 8 6 5 3 1 6 14 28 31 40 41 68 69 59 67 53 61 203 86 45 40 43 16 37 104 46 9 61 73 73 48 69 90 130 74 175 246 244 269 316 298 319 282
4 5 7 5 8 6 4 1 1 357 2 12 28 32 73 357 52 352 40 332 360 318 81 20 47 42 28 268 75 3 13 17 73 81 69 68 121 229 178 270 226 298 221 279 303 322 309
1 359 6 3 3 5 359 358 358 356 358 359 6 40 35 348 135 124 144 324 328 256 78 355 20 184 53 43 116 42 0 23 66 107 251 100 166 185 240 296 193 341 293 288 289 285 307
359 357 358 2 2 0 358 356 354 354 354 355 353 358 17 91 145 87 24 189 197 189 60 36 46 27 109 60 70 76 28 54 320 181 189 152 54 260 312 296 217 306 302 295 285 271 259
358 353 353 355 360 359 357 355 351 348 350 350 347 346 34 339 325 341 256 210 84 50 177 59 45 48 100 81 99 39 17 65 26 321 28 357 157 209 223 273 190 238 311 304 249 220 274
358 355 348 351 0 356 354 354 355 347 343 348 342 334 30 35 299 178 219 100 66 41 83 153 242 88 68 14 71 49 14 70 91 11 63 8 159 189 164 251 324 255 285 309 293 275 313
360 353 353 348 355 356 353 354 352 346 337 340 337 348 0 0 283 189 135 64 87 169 148 160 155 61 73 74 25 345 29 24 18 222 11 354 281 144 213 229 227 130 214 77 261 230 252
347 352 351 350 351 352 352 351 354 349 343 355 32 319 34 338 274 243 61 81 79 98 123 248 83 343 97 53 104 298 27 158 203 210 261 76 285 187 150 210 229 226 33 219 196 273 288
336 348 351 351 349 351 351 352 353 354 353 69 6 49 9 352 250 48 66 69 47 355 263 299 45 95 68 128 73 148 96 183 214 170 194 298 251 173 206 205 187 178 214 209 264 255 297
326 338 350 349 351 343 349 350 355 358 356 51 357 69 360 308 46 39 62 106 242 27 75 357 345 28 1 215 179 214 226 243 188 181 212 191 267 269 245 185 252 233 234 241 265 154 242
322 320 346 350 347 346 344 348 354 7 20 334 45 321 14 294 79 70 119 106 48 122 51 157 212 265 175 199 223 232 220 240 197 202 225 166 211 273 195 165 180 238 206 235 263 271 242
317 319 333 348 346 338 347 346 353 2 21 67 47 16 25 56 62 80 117 89 135 176 138 170 156 192 193 177 216 202 233 187 187 220 205 209 247 256 286 310 321 247 233 231 225 234 275
305 313 316 336 343 338 344 346 352 351 10 178 12 74 355 102 88 109 119 295 162 148 161 354 143 78 197 239 215 256 287 283 178 225 210 233 264 223 259 268 260 257 263 242 207 224 252
298 305 307 322 334 336 339 336 334 346 88 73 113 159 110 58 108 141 106 174 228 211 210 154 172 295 227 250 240 271 242 213 253 151 214 193 282 290 288 304 225 259 261 246 240 241 255
286 290 295 308 324 331 329 321 307 330 10 92 106 101 208 59 331 230 184 166 196 200 230 276 181 196 231 238 242 274 251 259 249 245 215 234 281 303 278 311 308 268 242 206 195 206 219
281 278 284 295 319 330 325 294 202 353 70 96 122 148 194 144 210 246 223 212 203 212 292 257 230 249 80 330 285 257 240 241 235 228 228 239 250 238 282 302 244 38 82 242 224 218 211
276 269 278 278 311 336 54 117 106 1 112 96 135 177 178 169 198 205 219 226 259 250 241 251 238 329 339 317 275 291 207 209 198 218 211 222 263 270 282 282 293 243 191 192 204 273 217
265 257 264 255 270 304 164 158 122 90 118 86 100 62 129 224 219 114 169 208 230 222 232 225 198 188 314 298 255 255 259 312 227 164 84 155 240 268 307 283 262 63 160 181 215 270 29
260 250 249 241 239 237 203 198 182 142 147 111 104 238 154 223 191 173 188 181 173 179 270 279 184 163 116 223 254 235 237 237 241 225 170 176 203 230 235 265 279 269 147 159 214 40 149
256 246 239 238 226 232 218 207 203 185 161 140 98 238 231 218 222 196 203 161 146 223 211 127 190 176 152 206 238 290 271 193 257 228 193 191 183 196 191 223 263 141 128 229 9 346 356
248 248 239 226 222 227 223 213 204 199 177 142 145 197 287 221 295 231 218 233 215 184 200 193 332 164 173 167 200 166 235 268 264 271 200 222 216 191 215 228 155 193 238 242 241 264 285